Location: Goettingen
(51.5300°N, 9.9433°E)
Time: 20:40:35
(UTC+02:00)

ISS - Pass Details

Date: 18 September 2021
Orbit: 419 x 423 km, 51.6° (Epoch: 20 September)

Event Time Altitude Azimuth Distance (km) Brightness Sun altitude
Rises 22:27:05 0° 257° (WSW) 2,364 0.5 -26.3°
Reaches altitude 10° 22:29:11 10° 256° (WSW) 1,502 -0.6 -26.5°
Enters shadow 22:29:30 12° 256° (WSW) 1,371 -0.8 -26.6°
